SAA343 FAOR-FACT

Flight info

Callsign SAA343
Flight time 1h 45m
Altitude 38000
Route RAGUL3B RAGUL DCT UTEBA DCT APMIN DCT EVESI DCT EGNOM DCT NOKOX DCT ERDAS ERDAS1B
Aircraft A346/H-SDE2E3FGHIJ3J4J5M1RWXY/LB1D1

Departure

Time 2026-05-07 12:27
Airport O.R. Tambo International Airport (FAOR)

Arrival

Time 2026-05-07 14:12
Airport Cape Town International Airport (FACT)
Time Latitude Longitude Altitude Speed Heading
2026-05-07 12:08 -26.12179 28.23845 5546 ft 0 kts 284°
2026-05-07 12:18 -26.12181 28.23850 5546 ft 3 kts 285°
2026-05-07 12:19 -26.12187 28.23874 5550 ft 4 kts 294°
2026-05-07 12:19 -26.12199 28.23893 5548 ft 4 kts 326°
2026-05-07 12:19 -26.12216 28.23899 5549 ft 4 kts
2026-05-07 12:19 -26.12241 28.23894 5549 ft 4 kts 17°
2026-05-07 12:20 -26.12260 28.23888 5551 ft 1 kts 15°
2026-05-07 12:20 -26.12263 28.23887 5550 ft 0 kts 15°
2026-05-07 12:22 -26.12261 28.23887 5550 ft 1 kts 14°
2026-05-07 12:22 -26.12245 28.23892 5550 ft 4 kts 14°
2026-05-07 12:22 -26.12211 28.23902 5550 ft 7 kts 15°
2026-05-07 12:23 -26.12167 28.23937 5546 ft 9 kts 69°
2026-05-07 12:23 -26.12137 28.24004 5546 ft 12 kts 34°
2026-05-07 12:23 -26.12050 28.24035 5544 ft 14 kts 15°
2026-05-07 12:23 -26.11948 28.24067 5538 ft 17 kts 15°
2026-05-07 12:24 -26.11819 28.24107 5534 ft 21 kts 16°
2026-05-07 12:24 -26.11672 28.24152 5534 ft 22 kts 15°
2026-05-07 12:24 -26.11518 28.24200 5532 ft 24 kts 15°
2026-05-07 12:24 -26.11355 28.24250 5532 ft 24 kts 16°
2026-05-07 12:25 -26.11183 28.24304 5526 ft 27 kts 15°
2026-05-07 12:25 -26.11010 28.24357 5523 ft 22 kts 15°
2026-05-07 12:25 -26.10912 28.24421 5520 ft 17 kts 58°
2026-05-07 12:25 -26.10853 28.24541 5516 ft 15 kts 73°
2026-05-07 12:26 -26.10909 28.24590 5517 ft 12 kts 195°
2026-05-07 12:26 -26.11076 28.24538 5524 ft 57 kts 197°
2026-05-07 12:26 -26.11710 28.24342 5537 ft 130 kts 195°
2026-05-07 12:26 -26.12785 28.24012 5555 ft 188 kts 195°
2026-05-07 12:27 -26.14110 28.23629 6273 ft 201 kts 194°
2026-05-07 12:27 -26.15510 28.23276 7142 ft 211 kts 192°
2026-05-07 12:27 -26.17006 28.22952 7866 ft 228 kts 196°
2026-05-07 12:27 -26.18573 28.22534 8510 ft 236 kts 198°
2026-05-07 12:28 -26.20213 28.22060 9094 ft 251 kts 198°
2026-05-07 12:28 -26.21964 28.21557 9583 ft 267 kts 198°
2026-05-07 12:28 -26.23802 28.21038 10268 ft 276 kts 198°
2026-05-07 12:28 -26.25702 28.20511 10873 ft 289 kts 198°
2026-05-07 12:29 -26.27714 28.19951 11330 ft 307 kts 198°
2026-05-07 12:29 -26.29841 28.19398 11881 ft 320 kts 198°
2026-05-07 12:29 -26.31953 28.18581 12296 ft 332 kts 213°
2026-05-07 12:29 -26.33763 28.16926 12620 ft 345 kts 232°
2026-05-07 12:30 -26.34977 28.14566 12957 ft 359 kts 252°
2026-05-07 12:30 -26.35349 28.11785 13631 ft 365 kts 270°
2026-05-07 12:30 -26.35293 28.08955 14581 ft 364 kts 271°
2026-05-07 12:30 -26.35264 28.06125 15434 ft 365 kts 270°
2026-05-07 12:31 -26.35237 28.03281 16209 ft 368 kts 270°
2026-05-07 12:31 -26.35204 28.00415 16986 ft 370 kts 271°
2026-05-07 12:31 -26.35167 27.97528 17746 ft 373 kts 271°
2026-05-07 12:31 -26.35126 27.94618 18489 ft 376 kts 271°
2026-05-07 12:32 -26.35084 27.91693 19108 ft 378 kts 271°
2026-05-07 12:32 -26.35039 27.88738 19715 ft 382 kts 271°
2026-05-07 12:32 -26.34993 27.85763 20332 ft 385 kts 271°
2026-05-07 12:32 -26.34945 27.82769 20955 ft 388 kts 271°
2026-05-07 12:33 -26.35633 27.76778 22262 ft 397 kts 252°
2026-05-07 12:33 -26.36870 27.73992 22925 ft 403 kts 245°
2026-05-07 12:33 -26.38290 27.71261 23450 ft 410 kts 244°
2026-05-07 12:34 -26.39720 27.68480 23920 ft 415 kts 245°
2026-05-07 12:34 -26.41124 27.65651 24416 ft 417 kts 246°
2026-05-07 12:34 -26.42508 27.62801 24975 ft 419 kts 245°
2026-05-07 12:34 -26.44021 27.60044 25531 ft 424 kts 241°
2026-05-07 12:35 -26.45784 27.57382 26086 ft 429 kts 237°
2026-05-07 12:35 -26.47780 27.54864 26611 ft 436 kts 232°
2026-05-07 12:35 -26.49951 27.52470 27103 ft 440 kts 231°
2026-05-07 12:35 -26.52168 27.50088 27572 ft 444 kts 231°
2026-05-07 12:36 -26.54407 27.47696 28070 ft 446 kts 231°
2026-05-07 12:36 -26.56645 27.45309 28749 ft 444 kts 231°
2026-05-07 12:36 -26.58870 27.42938 29552 ft 439 kts 231°
2026-05-07 12:36 -26.61077 27.40584 30304 ft 436 kts 232°
2026-05-07 12:37 -26.63261 27.38247 30920 ft 433 kts 232°
2026-05-07 12:37 -26.65431 27.35921 31509 ft 431 kts 232°
2026-05-07 12:37 -26.67590 27.33603 32094 ft 429 kts 232°
2026-05-07 12:37 -26.69741 27.31294 32675 ft 427 kts 232°
2026-05-07 12:38 -26.71881 27.28995 33229 ft 426 kts 232°
2026-05-07 12:38 -26.74015 27.26702 33785 ft 424 kts 232°
2026-05-07 12:38 -26.76138 27.24419 34292 ft 423 kts 232°
2026-05-07 12:38 -26.78257 27.22138 34736 ft 422 kts 232°
2026-05-07 12:39 -26.80372 27.19859 35141 ft 422 kts 232°
2026-05-07 12:39 -26.82488 27.17579 35526 ft 422 kts 232°
2026-05-07 12:39 -26.84600 27.15301 35892 ft 422 kts 232°
2026-05-07 12:39 -26.86714 27.13022 36242 ft 422 kts 232°
2026-05-07 12:40 -26.88831 27.10739 36576 ft 422 kts 232°
2026-05-07 12:40 -26.90950 27.08450 36856 ft 424 kts 232°
2026-05-07 12:40 -26.93081 27.06149 37120 ft 426 kts 232°
2026-05-07 12:40 -26.95220 27.03838 37363 ft 428 kts 232°
2026-05-07 12:41 -26.97354 27.01511 37613 ft 429 kts 232°
2026-05-07 12:41 -26.99489 26.99164 37853 ft 430 kts 232°
2026-05-07 12:41 -27.01629 26.96806 38079 ft 432 kts 232°
2026-05-07 12:41 -27.03775 26.94440 38125 ft 433 kts 232°
2026-05-07 12:42 -27.08082 26.89692 38141 ft 434 kts 232°
2026-05-07 12:42 -27.12388 26.84939 38136 ft 434 kts 232°
2026-05-07 12:43 -27.16667 26.80211 38136 ft 434 kts 232°
2026-05-07 12:43 -27.20979 26.75441 38136 ft 434 kts 232°
2026-05-07 12:44 -27.25291 26.70665 38137 ft 435 kts 232°
2026-05-07 12:44 -27.29600 26.65887 38136 ft 435 kts 232°
2026-05-07 12:45 -27.33909 26.61103 38134 ft 435 kts 232°
2026-05-07 12:45 -27.38221 26.56309 38132 ft 436 kts 232°
2026-05-07 12:46 -27.42541 26.51503 38135 ft 436 kts 232°
2026-05-07 12:46 -27.46857 26.46694 38133 ft 436 kts 232°
2026-05-07 12:47 -27.51174 26.41879 38138 ft 437 kts 232°
2026-05-07 12:47 -27.55497 26.37051 38128 ft 437 kts 232°
2026-05-07 12:48 -27.59789 26.32252 38132 ft 437 kts 231°
2026-05-07 12:48 -27.64112 26.27413 38132 ft 438 kts 231°
2026-05-07 12:49 -27.68435 26.22569 38132 ft 438 kts 231°
2026-05-07 12:49 -27.72760 26.17716 38130 ft 438 kts 231°
2026-05-07 12:50 -27.77089 26.12853 38133 ft 438 kts 231°
2026-05-07 12:50 -27.81413 26.07990 38130 ft 439 kts 231°
2026-05-07 12:51 -27.85739 26.03118 38132 ft 439 kts 231°
2026-05-07 12:51 -27.90062 25.98243 38131 ft 439 kts 231°
2026-05-07 12:52 -27.94383 25.93363 38122 ft 439 kts 231°
2026-05-07 12:52 -27.98707 25.88474 38125 ft 439 kts 231°
2026-05-07 12:53 -28.03031 25.83583 38133 ft 439 kts 231°
2026-05-07 12:53 -28.07352 25.78693 38133 ft 439 kts 231°
2026-05-07 12:54 -28.11675 25.73792 38131 ft 439 kts 231°
2026-05-07 12:54 -28.15988 25.68892 38133 ft 439 kts 231°
2026-05-07 12:55 -28.20310 25.63977 38138 ft 439 kts 231°
2026-05-07 12:55 -28.24626 25.59062 38130 ft 439 kts 231°
2026-05-07 12:56 -28.28939 25.54145 38130 ft 439 kts 231°
2026-05-07 12:56 -28.33225 25.49252 38134 ft 440 kts 231°
2026-05-07 12:57 -28.37539 25.44320 38127 ft 440 kts 231°
2026-05-07 12:57 -28.41850 25.39387 38132 ft 440 kts 231°
2026-05-07 12:58 -28.46164 25.34444 38130 ft 440 kts 231°
2026-05-07 12:58 -28.50476 25.29495 38131 ft 440 kts 231°
2026-05-07 12:59 -28.54784 25.24544 38131 ft 440 kts 230°
2026-05-07 12:59 -28.59093 25.19586 38132 ft 440 kts 230°
2026-05-07 13:00 -28.63405 25.14627 38127 ft 440 kts 230°
2026-05-07 13:00 -28.67713 25.09667 38111 ft 440 kts 230°
2026-05-07 13:01 -28.72017 25.04702 38114 ft 440 kts 230°
2026-05-07 13:01 -28.75595 25.00568 38120 ft 440 kts 230°
2026-05-07 13:02 -28.80592 24.94787 38119 ft 440 kts 230°
2026-05-07 13:02 -28.84192 24.90618 38123 ft 440 kts 230°
2026-05-07 13:03 -28.88489 24.85633 38128 ft 440 kts 230°
2026-05-07 13:03 -28.92785 24.80644 38127 ft 440 kts 230°
2026-05-07 13:04 -28.97083 24.75647 38126 ft 440 kts 230°
2026-05-07 13:04 -29.01379 24.70644 38130 ft 441 kts 230°
2026-05-07 13:05 -29.05644 24.65674 38123 ft 441 kts 230°
2026-05-07 13:05 -29.09967 24.60628 38129 ft 441 kts 230°
2026-05-07 13:06 -29.14234 24.55642 38120 ft 441 kts 230°
2026-05-07 13:06 -29.18523 24.50624 38117 ft 441 kts 230°
2026-05-07 13:07 -29.22813 24.45597 38123 ft 441 kts 230°
2026-05-07 13:07 -29.27106 24.40561 38123 ft 441 kts 230°
2026-05-07 13:08 -29.31391 24.35528 38121 ft 441 kts 230°
2026-05-07 13:08 -29.35681 24.30484 38124 ft 441 kts 230°
2026-05-07 13:09 -29.39963 24.25441 38120 ft 441 kts 230°
2026-05-07 13:09 -29.44243 24.20394 38121 ft 441 kts 230°
2026-05-07 13:10 -29.48524 24.15339 38120 ft 441 kts 230°
2026-05-07 13:10 -29.52806 24.10277 38121 ft 441 kts 230°
2026-05-07 13:11 -29.57078 24.05221 38124 ft 441 kts 230°
2026-05-07 13:11 -29.61347 24.00161 38122 ft 441 kts 230°
2026-05-07 13:12 -29.65614 23.95097 38126 ft 440 kts 230°
2026-05-07 13:12 -29.69878 23.90030 38123 ft 440 kts 230°
2026-05-07 13:13 -29.74132 23.84968 38120 ft 439 kts 230°
2026-05-07 13:13 -29.78381 23.79906 38119 ft 439 kts 230°
2026-05-07 13:14 -29.82596 23.74878 38120 ft 439 kts 230°
2026-05-07 13:14 -29.86831 23.69819 38116 ft 438 kts 230°
2026-05-07 13:15 -29.91065 23.64754 38112 ft 438 kts 230°
2026-05-07 13:15 -29.95293 23.59692 38116 ft 438 kts 230°
2026-05-07 13:16 -29.99522 23.54620 38111 ft 438 kts 230°
2026-05-07 13:16 -30.03742 23.49552 38114 ft 438 kts 230°
2026-05-07 13:17 -30.07963 23.44477 38110 ft 438 kts 230°
2026-05-07 13:17 -30.12181 23.39399 38106 ft 437 kts 230°
2026-05-07 13:18 -30.16392 23.34321 38095 ft 437 kts 230°
2026-05-07 13:18 -30.20605 23.29235 38112 ft 437 kts 230°
2026-05-07 13:19 -30.24816 23.24144 38101 ft 437 kts 230°
2026-05-07 13:19 -30.28993 23.19088 38097 ft 437 kts 230°
2026-05-07 13:20 -30.33199 23.13990 38099 ft 437 kts 230°
2026-05-07 13:20 -30.37397 23.08896 38105 ft 437 kts 230°
2026-05-07 13:21 -30.41596 23.03793 38107 ft 437 kts 230°
2026-05-07 13:21 -30.45787 22.98693 38101 ft 437 kts 230°
2026-05-07 13:22 -30.49980 22.93585 38099 ft 436 kts 230°
2026-05-07 13:22 -30.54166 22.88477 38101 ft 436 kts 230°
2026-05-07 13:23 -30.58353 22.83362 38096 ft 436 kts 230°
2026-05-07 13:23 -30.62536 22.78244 38095 ft 436 kts 230°
2026-05-07 13:24 -30.66710 22.73130 38100 ft 436 kts 230°
2026-05-07 13:24 -30.70862 22.68037 38098 ft 436 kts 230°
2026-05-07 13:25 -30.75034 22.62911 38096 ft 436 kts 230°
2026-05-07 13:25 -30.79201 22.57784 38096 ft 436 kts 230°
2026-05-07 13:26 -30.83360 22.52658 38096 ft 435 kts 230°
2026-05-07 13:26 -30.87522 22.47522 38100 ft 435 kts 230°
2026-05-07 13:27 -30.91679 22.42385 38104 ft 436 kts 230°
2026-05-07 13:27 -30.95831 22.37239 38104 ft 435 kts 230°
2026-05-07 13:28 -30.99977 22.32089 38107 ft 435 kts 230°
2026-05-07 13:28 -31.04122 22.26930 38111 ft 435 kts 230°
2026-05-07 13:29 -31.08261 22.21772 38108 ft 435 kts 230°
2026-05-07 13:29 -31.12398 22.16608 38111 ft 435 kts 230°
2026-05-07 13:30 -31.16534 22.11439 38114 ft 435 kts 230°
2026-05-07 13:30 -31.20668 22.06264 38117 ft 435 kts 230°
2026-05-07 13:31 -31.24773 22.01119 38117 ft 435 kts 230°
2026-05-07 13:31 -31.28907 21.95930 38122 ft 435 kts 230°
2026-05-07 13:32 -31.33035 21.90743 38118 ft 435 kts 230°
2026-05-07 13:32 -31.37159 21.85552 38127 ft 435 kts 230°
2026-05-07 13:33 -31.41282 21.80355 38120 ft 435 kts 230°
2026-05-07 13:33 -31.45402 21.75156 38115 ft 435 kts 230°
2026-05-07 13:34 -31.51579 21.67348 38118 ft 435 kts 230°
2026-05-07 13:35 -31.55692 21.62139 38116 ft 435 kts 230°
2026-05-07 13:35 -31.59796 21.56935 38120 ft 434 kts 230°
2026-05-07 13:36 -31.63871 21.51758 38120 ft 434 kts 230°
2026-05-07 13:36 -31.67968 21.46548 38116 ft 434 kts 230°
2026-05-07 13:37 -31.72091 21.41296 38121 ft 434 kts 230°
2026-05-07 13:37 -31.76156 21.36113 38121 ft 434 kts 230°
2026-05-07 13:38 -31.80242 21.30893 38120 ft 434 kts 230°
2026-05-07 13:38 -31.84326 21.25671 38121 ft 433 kts 230°
2026-05-07 13:39 -31.88409 21.20441 38123 ft 433 kts 230°
2026-05-07 13:39 -31.92484 21.15215 38122 ft 433 kts 230°
2026-05-07 13:40 -31.96556 21.09986 38127 ft 433 kts 230°
2026-05-07 13:40 -32.00626 21.04751 38125 ft 433 kts 230°
2026-05-07 13:41 -32.04690 20.99517 38132 ft 432 kts 230°
2026-05-07 13:41 -32.08752 20.94279 38132 ft 432 kts 230°
2026-05-07 13:42 -32.12812 20.89034 38133 ft 432 kts 230°
2026-05-07 13:42 -32.16842 20.83822 38135 ft 432 kts 231°
2026-05-07 13:43 -32.20895 20.78571 38134 ft 432 kts 230°
2026-05-07 13:43 -32.24942 20.73322 38134 ft 432 kts 230°
2026-05-07 13:44 -32.28985 20.68069 38139 ft 432 kts 230°
2026-05-07 13:44 -32.33031 20.62806 38144 ft 432 kts 230°
2026-05-07 13:45 -32.37076 20.57536 38146 ft 432 kts 230°
2026-05-07 13:45 -32.41115 20.52267 38144 ft 432 kts 230°
2026-05-07 13:46 -32.45154 20.46991 38145 ft 432 kts 230°
2026-05-07 13:46 -32.49186 20.41714 38142 ft 432 kts 231°
2026-05-07 13:47 -32.53223 20.36424 37744 ft 431 kts 230°
2026-05-07 13:47 -32.55230 20.33790 37232 ft 430 kts 230°
2026-05-07 13:47 -32.57239 20.31151 36697 ft 430 kts 230°
2026-05-07 13:47 -32.59244 20.28515 36101 ft 431 kts 230°
2026-05-07 13:48 -32.61254 20.25872 35515 ft 431 kts 230°
2026-05-07 13:48 -32.63263 20.23228 34923 ft 431 kts 230°
2026-05-07 13:48 -32.65246 20.20617 34344 ft 431 kts 230°
2026-05-07 13:48 -32.67257 20.17968 33686 ft 431 kts 230°
2026-05-07 13:49 -32.69264 20.15322 33026 ft 431 kts 230°
2026-05-07 13:49 -32.71268 20.12678 32392 ft 430 kts 230°
2026-05-07 13:49 -32.73272 20.10034 31738 ft 430 kts 230°
2026-05-07 13:49 -32.75275 20.07386 31081 ft 431 kts 230°
2026-05-07 13:50 -32.77281 20.04736 30432 ft 432 kts 230°
2026-05-07 13:50 -32.79292 20.02072 29690 ft 433 kts 230°
2026-05-07 13:50 -32.81305 19.99406 28951 ft 433 kts 229°
2026-05-07 13:50 -32.83320 19.96735 28253 ft 433 kts 229°
2026-05-07 13:51 -32.85331 19.94067 27556 ft 433 kts 229°
2026-05-07 13:51 -32.86661 19.92302 27115 ft 432 kts 229°
2026-05-07 13:51 -32.88657 19.89653 26689 ft 426 kts 229°
2026-05-07 13:51 -32.90626 19.87037 26244 ft 422 kts 229°
2026-05-07 13:52 -32.92577 19.84441 25718 ft 419 kts 229°
2026-05-07 13:52 -32.94514 19.81863 25259 ft 416 kts 229°
2026-05-07 13:52 -32.96434 19.79305 24815 ft 412 kts 229°
2026-05-07 13:52 -32.98336 19.76767 24374 ft 409 kts 229°
2026-05-07 13:53 -33.00225 19.74248 23935 ft 406 kts 229°
2026-05-07 13:53 -33.02102 19.71741 23470 ft 403 kts 229°
2026-05-07 13:53 -33.03961 19.69255 22990 ft 400 kts 229°
2026-05-07 13:53 -33.05683 19.66947 22555 ft 397 kts 228°
2026-05-07 13:54 -33.07514 19.64492 22119 ft 393 kts 229°
2026-05-07 13:54 -33.09326 19.62059 21677 ft 390 kts 228°
2026-05-07 13:54 -33.11124 19.59644 21228 ft 388 kts 228°
2026-05-07 13:54 -33.12910 19.57242 20792 ft 385 kts 228°
2026-05-07 13:55 -33.14685 19.54854 20360 ft 383 kts 228°
2026-05-07 13:55 -33.16451 19.52477 19911 ft 381 kts 227°
2026-05-07 13:55 -33.18208 19.50108 19463 ft 380 kts 227°
2026-05-07 13:55 -33.19960 19.47748 19036 ft 379 kts 227°
2026-05-07 13:56 -33.21707 19.45392 18602 ft 378 kts 227°
2026-05-07 13:56 -33.23447 19.43042 18104 ft 377 kts 227°
2026-05-07 13:56 -33.25159 19.40730 17648 ft 375 kts 227°
2026-05-07 13:56 -33.26883 19.38401 17208 ft 372 kts 227°
2026-05-07 13:57 -33.28594 19.36086 16778 ft 370 kts 227°
2026-05-07 13:57 -33.30183 19.33680 16188 ft 369 kts 233°
2026-05-07 13:57 -33.31626 19.31108 14642 ft 378 kts 235°
2026-05-07 13:57 -33.33067 19.28438 13435 ft 379 kts 235°
2026-05-07 13:58 -33.34489 19.25819 12881 ft 374 kts 235°
2026-05-07 13:58 -33.35916 19.23214 12525 ft 374 kts 234°
2026-05-07 13:58 -33.37344 19.20630 12048 ft 370 kts 234°
2026-05-07 13:58 -33.38766 19.18068 11605 ft 367 kts 234°
2026-05-07 13:59 -33.40177 19.15531 11161 ft 364 kts 234°
2026-05-07 13:59 -33.41569 19.13029 10898 ft 354 kts 234°
2026-05-07 13:59 -33.42906 19.10623 10784 ft 340 kts 234°
2026-05-07 13:59 -33.44195 19.08305 10653 ft 327 kts 234°
2026-05-07 14:00 -33.45437 19.06077 10510 ft 316 kts 234°
2026-05-07 14:00 -33.46636 19.03925 10388 ft 304 kts 234°
2026-05-07 14:00 -33.47789 19.01854 10290 ft 293 kts 234°
2026-05-07 14:00 -33.48894 18.99861 10200 ft 281 kts 234°
2026-05-07 14:01 -33.49960 18.97936 9978 ft 276 kts 234°
2026-05-07 14:01 -33.51025 18.96015 9598 ft 276 kts 234°
2026-05-07 14:01 -33.52086 18.94099 9283 ft 275 kts 234°
2026-05-07 14:01 -33.53139 18.92199 8976 ft 272 kts 234°
2026-05-07 14:02 -33.54185 18.90309 8680 ft 271 kts 234°
2026-05-07 14:02 -33.55221 18.88436 8393 ft 268 kts 234°
2026-05-07 14:02 -33.56248 18.86570 8109 ft 267 kts 234°
2026-05-07 14:02 -33.57269 18.84714 7809 ft 266 kts 234°
2026-05-07 14:03 -33.58286 18.82869 7517 ft 265 kts 234°
2026-05-07 14:03 -33.59302 18.81030 7236 ft 264 kts 234°
2026-05-07 14:03 -33.60316 18.79198 6958 ft 263 kts 233°
2026-05-07 14:03 -33.61315 18.77400 6680 ft 262 kts 234°
2026-05-07 14:04 -33.62324 18.75582 6378 ft 261 kts 234°
2026-05-07 14:04 -33.63336 18.73740 6091 ft 260 kts 234°
2026-05-07 14:04 -33.64319 18.71952 5820 ft 259 kts 234°
2026-05-07 14:04 -33.65314 18.70146 5546 ft 258 kts 234°
2026-05-07 14:05 -33.66306 18.68346 5277 ft 258 kts 234°
2026-05-07 14:05 -33.67294 18.66550 5002 ft 257 kts 234°
2026-05-07 14:05 -33.68275 18.64765 4722 ft 255 kts 234°
2026-05-07 14:05 -33.69251 18.62986 4455 ft 255 kts 234°
2026-05-07 14:06 -33.70226 18.61208 4184 ft 253 kts 234°
2026-05-07 14:06 -33.71194 18.59447 3920 ft 252 kts 234°
2026-05-07 14:06 -33.72161 18.57687 3649 ft 252 kts 234°
2026-05-07 14:06 -33.73124 18.55929 3391 ft 251 kts 234°
2026-05-07 14:07 -33.74292 18.54407 3061 ft 246 kts 208°
2026-05-07 14:07 -33.75867 18.53783 2973 ft 231 kts 181°
2026-05-07 14:07 -33.77400 18.53993 2975 ft 216 kts 165°
2026-05-07 14:07 -33.78841 18.54477 2988 ft 215 kts 162°
2026-05-07 14:08 -33.80279 18.54993 2986 ft 214 kts 163°
2026-05-07 14:08 -33.81679 18.55467 2981 ft 206 kts 163°
2026-05-07 14:08 -33.83061 18.55913 2940 ft 204 kts 164°
2026-05-07 14:08 -33.84420 18.56340 2718 ft 199 kts 164°
2026-05-07 14:09 -33.85742 18.56757 2401 ft 193 kts 165°
2026-05-07 14:09 -33.87011 18.57158 2109 ft 183 kts 166°
2026-05-07 14:09 -33.88205 18.57535 1830 ft 171 kts 165°
2026-05-07 14:09 -33.89305 18.57883 1583 ft 156 kts 165°
2026-05-07 14:10 -33.90310 18.58205 1373 ft 146 kts 166°
2026-05-07 14:10 -33.91292 18.58514 1202 ft 145 kts 167°
2026-05-07 14:10 -33.92259 18.58817 1010 ft 143 kts 166°
2026-05-07 14:10 -33.93216 18.59124 806 ft 142 kts 167°
2026-05-07 14:11 -33.94165 18.59429 602 ft 140 kts 167°
2026-05-07 14:11 -33.95088 18.59733 403 ft 139 kts 163°
2026-05-07 14:11 -33.96023 18.60024 209 ft 138 kts 167°
2026-05-07 14:11 -33.96853 18.60281 167 ft 96 kts 165°
2026-05-07 14:12 -33.97286 18.60417 160 ft 37 kts 165°
2026-05-07 14:12 -33.97505 18.60488 159 ft 35 kts 166°
2026-05-07 14:12 -33.97715 18.60555 162 ft 25 kts 165°
2026-05-07 14:12 -33.97779 18.60456 162 ft 18 kts 285°
2026-05-07 14:13 -33.97741 18.60291 165 ft 20 kts 286°
2026-05-07 14:13 -33.97713 18.60202 165 ft 14 kts 311°
2026-05-07 14:13 -33.97614 18.60146 165 ft 12 kts 338°
2026-05-07 14:13 -33.97540 18.60108 165 ft 17 kts 336°
2026-05-07 14:14 -33.97425 18.60057 165 ft 16 kts 346°
2026-05-07 14:14 -33.97320 18.60024 165 ft 11 kts 344°
2026-05-07 14:14 -33.97281 18.60011 165 ft 0 kts 345°
2026-05-07 14:16 -33.97247 18.60000 165 ft 14 kts 345°
2026-05-07 14:17 -33.97181 18.59979 165 ft 3 kts 346°
2026-05-07 14:17 -33.97107 18.59962 165 ft 9 kts 351°
2026-05-07 14:17 -33.97026 18.59940 165 ft 10 kts 345°
2026-05-07 14:17 -33.96916 18.59904 165 ft 18 kts 345°
2026-05-07 14:18 -33.96793 18.59865 165 ft 15 kts 345°
2026-05-07 14:18 -33.96746 18.59850 165 ft 0 kts 350°
2026-05-07 14:18 -33.96732 18.59860 165 ft 4 kts 60°
2026-05-07 14:18 -33.96726 18.59883 165 ft 2 kts 65°
2026-05-07 14:19 -33.96723 18.59895 165 ft 6 kts 75°
2026-05-07 14:19 -33.96718 18.59917 165 ft 0 kts 75°